timestamp,surface_pressure_avg,surface_temp_avg,battery_voltage,lat,long
2020-12-23 00:09:01+00:00,211.1414,4.55,12.57,47.84626,-54.09684
2020-12-23 00:19:01+00:00,211.6064,4.54,12.57,47.84626,-54.09684
2020-12-23 00:29:01+00:00,216.6931,4.54,12.57,47.84626,-54.09684
2020-12-23 00:39:01+00:00,209.3131,4.51,12.57,47.84626,-54.09684
2020-12-23 00:49:01+00:00,205.0847,4.5,12.57,47.84626,-54.09684
2020-12-23 00:59:01+00:00,213.7531,4.5,12.57,47.84626,-54.09684
2020-12-23 01:09:01+00:00,212.5631,4.5,12.57,47.84626,-54.09684
2020-12-23 01:19:01+00:00,207.2998,4.5,12.57,47.84626,-54.09684
2020-12-23 01:29:01+00:00,209.2481,4.54,12.57,47.84626,-54.09684
2020-12-23 01:39:01+00:00,217.6681,4.53,12.57,47.84626,-54.09684
2020-12-23 01:49:01+00:00,219.7564,4.56,12.57,47.84626,-54.09684
2020-12-23 01:59:01+00:00,220.7348,4.58,12.57,47.84626,-54.09684
2020-12-23 02:09:01+00:00,233.8847,4.57,12.57,47.84626,-54.09684
2020-12-23 02:19:01+00:00,248.1381,4.56,12.57,47.84626,-54.09684
2020-12-23 02:29:01+00:00,251.0214,4.57,12.57,47.84626,-54.09684
2020-12-23 02:39:01+00:00,251.3647,4.6,12.57,47.84626,-54.09684
2020-12-23 02:49:01+00:00,263.7365,4.6,12.57,47.84626,-54.09684
2020-12-23 02:59:01+00:00,271.1564,4.6,12.57,47.84626,-54.09684
2020-12-23 03:09:01+00:00,271.7014,4.6,12.57,47.84626,-54.09684
2020-12-23 03:19:01+00:00,279.928,4.6,12.57,47.84626,-54.09684
2020-12-23 03:29:01+00:00,294.0964,4.6,12.57,47.84626,-54.09684
2020-12-23 03:39:01+00:00,293.623,4.53,12.57,47.84626,-54.09684
2020-12-23 03:49:01+00:00,291.228,4.59,12.57,47.84626,-54.09684
2020-12-23 03:59:01+00:00,305.4398,4.6,12.57,47.84626,-54.09684
2020-12-23 04:09:01+00:00,309.3763,4.6,12.57,47.84626,-54.09684
2020-12-23 04:19:01+00:00,297.993,4.6,12.57,47.84626,-54.09684
2020-12-23 04:29:01+00:00,303.073,4.6,12.57,47.84626,-54.09684
2020-12-23 04:39:01+00:00,312.2497,4.6,12.57,47.84626,-54.09684
2020-12-23 04:49:01+00:00,305.078,4.6,12.57,47.84626,-54.09684
2020-12-23 04:59:01+00:00,294.6747,4.6,12.57,47.84626,-54.09684
2020-12-23 05:09:01+00:00,302.0297,4.6,12.57,47.84626,-54.09684
2020-12-23 05:19:01+00:00,306.7447,4.6,12.57,47.84626,-54.09684
2020-12-23 05:29:01+00:00,304.5113,4.6,12.57,47.84626,-54.09684
2020-12-23 05:39:01+00:00,312.0913,4.6,12.57,47.84626,-54.09684
2020-12-23 05:49:01+00:00,318.053,4.5,12.57,47.84626,-54.09684
2020-12-23 05:59:01+00:00,313.8046,4.5,12.57,47.84626,-54.09684
2020-12-23 06:09:01+00:00,317.6746,4.52,12.57,47.84626,-54.09684
2020-12-23 06:19:01+00:00,321.0896,4.58,12.57,47.84626,-54.09684
2020-12-23 06:29:01+00:00,319.1114,4.56,12.57,47.84626,-54.09684
2020-12-23 06:39:01+00:00,321.303,4.54,12.57,47.84626,-54.09684
2020-12-23 06:49:01+00:00,331.8113,4.54,12.57,47.84626,-54.09684
2020-12-23 06:59:01+00:00,338.913,4.56,12.57,47.84626,-54.09684
2020-12-23 07:09:01+00:00,330.2547,4.6,12.57,47.84626,-54.09684
2020-12-23 07:19:01+00:00,328.4747,4.6,12.57,47.84626,-54.09684
2020-12-23 07:29:01+00:00,334.3147,4.6,12.57,47.84626,-54.09684
2020-12-23 07:39:01+00:00,333.3696,4.6,12.57,47.84626,-54.09684
2020-12-23 07:49:01+00:00,323.5397,4.57,12.57,47.84626,-54.09684
2020-12-23 07:59:01+00:00,321.793,4.6,12.57,47.84626,-54.09684
2020-12-23 08:09:01+00:00,329.9597,4.6,12.57,47.84626,-54.09684
2020-12-23 08:19:01+00:00,325.6629,4.6,12.57,47.84626,-54.09684
2020-12-23 08:29:01+00:00,320.33299999999997,4.6,12.57,47.84626,-54.09684
2020-12-23 08:39:01+00:00,329.9164,4.6,12.57,47.84626,-54.09684
2020-12-23 08:49:01+00:00,330.6464,4.6,12.57,47.84626,-54.09684
2020-12-23 08:59:01+00:00,321.7697,4.6,12.57,47.84626,-54.09684
2020-12-23 09:09:01+00:00,313.4997,4.6,12.57,47.84626,-54.09684
2020-12-23 09:19:01+00:00,319.8996,4.59,12.57,47.84626,-54.09684
2020-12-23 09:29:01+00:00,315.4896,4.58,12.57,47.84626,-54.09684
2020-12-23 09:39:01+00:00,305.0096,4.56,12.57,47.84626,-54.09684
2020-12-23 09:49:01+00:00,300.7547,4.59,12.57,47.84626,-54.09684
2020-12-23 09:59:01+00:00,291.5314,4.6,12.57,47.84626,-54.09684
2020-12-23 10:09:01+00:00,282.1247,4.6,12.57,47.84626,-54.09684
2020-12-23 10:19:01+00:00,286.3497,4.6,12.57,47.84626,-54.09684
2020-12-23 10:29:01+00:00,292.6931,4.6,12.57,47.84626,-54.09684
2020-12-23 10:39:01+00:00,279.0231,4.6,12.57,47.84626,-54.09684
2020-12-23 10:49:01+00:00,266.3897,4.6,12.57,47.84626,-54.09684
2020-12-23 10:59:01+00:00,267.7264,4.6,12.57,47.84626,-54.09684
2020-12-23 11:09:01+00:00,267.293,4.6,12.57,47.84626,-54.09684
2020-12-23 11:19:01+00:00,255.1697,4.6,12.49,47.84626,-54.09684
2020-12-23 11:29:01+00:00,247.1214,4.6,12.49,47.84626,-54.09684
2020-12-23 11:39:01+00:00,256.3464,4.6,12.49,47.84626,-54.09684
2020-12-23 11:49:01+00:00,260.828,4.5,12.49,47.84626,-54.09684
2020-12-23 11:59:01+00:00,253.9731,4.58,12.49,47.84626,-54.09684
2020-12-23 12:09:01+00:00,248.4764,4.59,12.49,47.84626,-54.09684
2020-12-23 12:19:01+00:00,256.7814,4.59,12.49,47.84626,-54.09684
2020-12-23 12:29:01+00:00,261.2681,4.57,12.49,47.84626,-54.09684
2020-12-23 12:39:01+00:00,254.468,4.59,12.49,47.84626,-54.09684
2020-12-23 12:49:01+00:00,258.1914,4.6,12.49,47.84626,-54.09684
2020-12-23 12:59:01+00:00,256.2531,4.6,12.49,47.84626,-54.09684
2020-12-23 13:09:01+00:00,252.4498,4.6,12.49,47.84626,-54.09684
2020-12-23 13:19:01+00:00,249.4247,4.6,12.65,47.84626,-54.09684
2020-12-23 13:29:01+00:00,255.3647,4.6,12.65,47.84626,-54.09684
2020-12-23 13:39:01+00:00,256.4314,4.6,12.65,47.84626,-54.09684
2020-12-23 13:49:01+00:00,252.3214,4.6,12.65,47.84626,-54.09684
2020-12-23 13:59:01+00:00,253.8681,4.6,12.65,47.84626,-54.09684
2020-12-23 14:09:01+00:00,261.1647,4.6,12.65,47.84626,-54.09684
2020-12-23 14:19:01+00:00,263.2631,4.6,12.89,47.84626,-54.09684
2020-12-23 14:29:01+00:00,268.0231,4.6,12.89,47.84626,-54.09684
2020-12-23 14:39:01+00:00,272.7364,4.6,12.89,47.84626,-54.09684
2020-12-23 14:49:01+00:00,274.1064,4.6,12.89,47.84626,-54.09684
2020-12-23 14:59:01+00:00,274.2997,4.6,12.89,47.84626,-54.09684
2020-12-23 15:09:01+00:00,289.08299999999997,4.6,12.89,47.84626,-54.09684
2020-12-23 15:19:01+00:00,290.213,4.6,13.29,47.84626,-54.09684
2020-12-23 15:29:01+00:00,284.3597,4.6,13.29,47.84626,-54.09684
2020-12-23 15:39:01+00:00,287.373,4.6,13.29,47.84626,-54.09684
2020-12-23 15:49:01+00:00,296.9397,4.6,13.29,47.84626,-54.09684
2020-12-23 15:59:01+00:00,295.3514,4.6,13.29,47.84626,-54.09684
2020-12-23 16:09:01+00:00,289.5646,4.6,13.29,47.84626,-54.09684
2020-12-23 16:19:01+00:00,300.9446,4.6,13.29,47.84626,-54.09684
2020-12-23 16:29:01+00:00,305.8497,4.6,13.29,47.84626,-54.09684
2020-12-23 16:39:01+00:00,301.6813,4.6,13.29,47.84626,-54.09684
2020-12-23 16:49:01+00:00,302.6913,4.6,13.29,47.84626,-54.09684
2020-12-23 16:59:01+00:00,310.6164,4.6,13.29,47.84626,-54.09684
2020-12-23 17:09:01+00:00,315.9946,4.6,13.29,47.84626,-54.09684
2020-12-23 17:19:01+00:00,319.0447,4.6,13.05,47.84626,-54.09684
2020-12-23 17:29:01+00:00,324.713,4.6,13.05,47.84626,-54.09684
2020-12-23 17:39:01+00:00,340.2847,4.6,13.05,47.84626,-54.09684
2020-12-23 17:49:01+00:00,339.4446,4.6,13.05,47.84626,-54.09684
2020-12-23 17:59:01+00:00,328.4496,4.6,13.05,47.84626,-54.09684
2020-12-23 18:09:01+00:00,332.2697,4.6,13.05,47.84626,-54.09684
2020-12-23 18:19:01+00:00,342.0714,4.6,12.97,47.84626,-54.09684
2020-12-23 18:29:01+00:00,343.7447,4.6,12.97,47.84626,-54.09684
2020-12-23 18:39:01+00:00,333.798,4.6,12.97,47.84626,-54.09684
2020-12-23 18:49:01+00:00,340.8796,4.6,12.97,47.84626,-54.09684
2020-12-23 18:59:01+00:00,345.7562,4.6,12.97,47.84626,-54.09684
2020-12-23 19:09:01+00:00,332.1513,4.6,12.97,47.84626,-54.09684
2020-12-23 19:19:01+00:00,317.9429,4.6,12.89,47.84626,-54.09684
2020-12-23 19:29:01+00:00,334.2313,4.6,12.89,47.84626,-54.09684
2020-12-23 19:39:01+00:00,343.3763,4.6,12.89,47.84626,-54.09684
2020-12-23 19:49:01+00:00,323.313,4.6,12.89,47.84626,-54.09684
2020-12-23 19:59:01+00:00,320.4496,4.6,12.89,47.84626,-54.09684
2020-12-23 20:09:01+00:00,334.3863,4.6,12.89,47.84626,-54.09684
2020-12-23 20:19:01+00:00,323.0663,4.6,12.81,47.84626,-54.09684
2020-12-23 20:29:01+00:00,314.1281,4.6,12.81,47.84626,-54.09684
2020-12-23 20:39:01+00:00,330.3896,4.6,12.81,47.84626,-54.09684
2020-12-23 20:49:01+00:00,332.7263,4.6,12.81,47.84626,-54.09684
2020-12-23 20:59:01+00:00,310.5613,4.6,12.81,47.84626,-54.09684
2020-12-23 21:09:01+00:00,310.1564,4.6,12.81,47.84626,-54.09684
2020-12-23 21:19:01+00:00,319.843,4.6,12.81,47.84626,-54.09684
2020-12-23 21:29:01+00:00,306.6563,4.6,12.81,47.84626,-54.09684
2020-12-23 21:39:01+00:00,287.6281,4.6,12.81,47.84626,-54.09684
2020-12-23 21:49:01+00:00,302.6263,4.6,12.81,47.84626,-54.09684
2020-12-23 21:59:01+00:00,308.2914,4.6,12.81,47.84626,-54.09684
2020-12-23 22:09:01+00:00,291.983,4.6,12.81,47.84626,-54.09684
2020-12-23 22:19:01+00:00,285.6414,4.6,12.73,47.84626,-54.09684
2020-12-23 22:29:01+00:00,291.7848,4.6,12.73,47.84626,-54.09684
2020-12-23 22:39:01+00:00,283.5414,4.6,12.73,47.84626,-54.09684
2020-12-23 22:49:01+00:00,269.4014,4.6,12.73,47.84626,-54.09684
2020-12-23 22:59:01+00:00,276.8414,4.6,12.73,47.84626,-54.09684
2020-12-23 23:09:01+00:00,281.2764,4.6,12.73,47.84626,-54.09684
2020-12-23 23:19:01+00:00,264.3464,4.6,12.73,47.84626,-54.09684
2020-12-23 23:29:01+00:00,247.1314,4.6,12.73,47.84626,-54.09684
2020-12-23 23:39:01+00:00,256.3031,4.6,12.73,47.84626,-54.09684
2020-12-23 23:49:01+00:00,259.5148,4.6,12.73,47.84626,-54.09684
2020-12-23 23:59:01+00:00,247.6781,4.6,12.73,47.84626,-54.09684
